Location: Battery Park City
(40.7115°N, 74.0163°W)
Time: 05:15:26
(UTC+00:00)

USA 215 - Pass Details

Date: 08 December 2019
Orbit: 1099 x 1109 km, 123.0° (Epoch: 20 January)

Event Time Altitude Azimuth Distance (km) Brightness Sun altitude
Exits shadow 22:21:40 - 39° (NE) 3,201 5.2 -9.9°
Reaches altitude 10° 22:22:21 10° 37° (NE) 2,964 5.0 -10.0°
Maximum altitude 22:28:11 36° 334° (NNW) 1,677 4.3 -11.1°
Drops below altitude 10° 22:34:00 10° 271° (W) 2,964 6.7 -12.1°
Sets 22:36:41 0° 263° (W) 3,921 7.9 -12.6°
